Tracking 18957 objects as of 23-Jan-2018
HD Live streaming from Space Station
objects crossing your sky now

FREGAT R/B

Track FREGAT R/B now!
10-day predictions


NORAD ID: 40083
Int'l Code: 2014-038E
Perigee: 7,666.2 km
Apogee: 7,698.1 km
Inclination: 0.1 °
Period: 276.3 minutes
Semi major axis: 14053 km
RCS: Unknown
Launch date: July 10, 2014
Source: Commonwealth of Independent States (former USSR) (CIS)
Launch site: FRENCH GUIANA (FRGUI)

Note: This is a ROCKET BODY
aabbcc
Your satellite tracking list
Your tracking list is empty




NASA's NSSDC Master Catalog

Two Line Element Set (TLE):
1 40083U 14038E   18018.37793487 -.00000018  00000-0  00000+0 0  9996
2 40083   0.1345  46.8583 0011351 189.0605 123.9705  5.21126965 67090
Source of the keplerian elements: AFSPC